Location: Oakhurst
(33.6448°N, 111.9543°W)
Time: 01:25:57
(UTC+00:00)

FO-99 - Pass Details

Date: 05 August 2021
Orbit: 471 x 503 km, 97.2° (Epoch: 24 September)

Event Time Altitude Azimuth Distance (km) Brightness Sun altitude
Exits shadow 02:44:22 - 140° (SE) 2,316 ? -4.6°
Reaches altitude 10° 02:45:59 10° 130° (SE) 1,712 ? -4.9°
Maximum altitude 02:49:05 26° 73° (ENE) 1,025 ? -5.5°
Drops below altitude 10° 02:52:12 10° 16° (NNE) 1,719 ? -6.1°
Sets 02:54:30 0° 3° (N) 2,604 ? -6.5°
